Wind_Speed
14 13 12 10 9 7 8 8 8 7 8 8 8 9 10 10 11 11 12 11 11 10 10 11 12 12 13 11 14 11 9 11 16 17 13 9 6 4 5 7 9 7 10 12 14 14 16
16 15 14 13 11 10 9 10 9 10 10 10 9 9 10 11 11 11 10 11 12 12 12 11 11 12 12 12 8 7 10 11 11 10 7 5 4 4 4 8 8 10 12 13 13 14 17
17 17 16 14 13 13 12 12 11 11 12 11 11 11 10 11 11 12 11 12 13 14 14 14 15 15 11 14 7 12 18 15 9 4 2 2 1 3 6 9 10 13 14 12 10 13 18
20 19 18 17 16 16 15 13 12 13 12 11 11 10 11 11 12 14 13 13 15 16 16 16 16 18 15 12 10 17 16 10 5 1 3 2 2 6 11 10 13 15 11 13 13 18 15
22 21 20 19 18 17 16 15 15 14 14 12 12 12 12 11 12 13 16 17 17 17 16 16 15 15 15 12 19 16 8 2 2 4 2 2 5 9 14 11 15 12 15 20 15 15 17
23 22 21 21 20 19 18 18 17 16 15 14 14 14 13 13 13 14 17 19 19 19 16 15 13 16 15 19 16 8 2 4 4 2 2 5 9 14 9 12 10 13 17 19 22 20 22
26 25 24 23 22 21 21 21 20 19 18 17 17 17 16 16 16 17 17 17 17 19 16 18 20 17 17 13 6 4 4 3 2 2 4 8 12 9 11 13 15 18 19 22 21 24 21
30 29 27 26 24 24 23 23 23 23 21 19 19 19 20 19 19 19 17 16 18 20 21 18 20 20 13 6 6 8 7 6 5 9 12 13 12 9 12 16 17 19 20 23 19 18 26
34 32 30 29 27 25 25 25 25 25 24 23 22 21 21 21 22 20 19 19 19 21 20 18 16 11 6 7 8 10 9 11 11 14 14 14 13 10 16 18 17 19 22 17 20 22 23
37 35 34 32 31 30 29 28 27 26 26 26 25 23 22 24 21 19 20 21 21 21 17 10 7 6 7 9 10 11 12 13 12 12 16 9 8 15 20 19 19 20 17 18 20 22 11
41 39 37 37 35 34 34 32 30 28 27 27 27 26 25 24 24 23 22 18 16 15 4 7 8 8 10 11 8 8 10 13 15 17 18 15 17 18 17 17 19 18 16 20 20 24 22
46 43 42 42 42 38 36 36 32 31 29 29 31 31 28 24 26 27 22 19 16 6 8 5 8 8 9 12 13 14 15 17 22 21 19 19 16 19 24 24 23 15 15 21 19 13 3
49 48 45 46 47 45 41 41 39 38 36 35 32 32 31 31 30 26 22 17 9 8 6 7 10 11 11 12 17 21 25 27 23 18 17 23 26 22 18 17 12 8 11 8 5 3 4
52 52 52 51 46 46 45 44 45 45 43 40 38 38 35 37 30 30 25 19 13 9 12 8 7 8 11 15 27 30 28 27 20 19 25 15 8 9 10 10 8 10 8 4 5 3 5
60 58 59 54 52 51 55 50 45 42 43 40 41 38 36 34 31 29 26 25 19 17 20 24 21 20 27 23 19 17 18 22 23 17 9 5 6 3 8 12 11 6 6 6 6 10 5
56 60 60 57 59 57 56 52 50 43 47 38 41 34 33 31 29 28 29 38 32 30 29 24 24 17 21 24 22 19 18 10 14 16 14 12 13 14 14 15 18 17 12 6 6 2 5
50 53 56 56 58 56 60 62 58 56 50 44 45 39 38 31 32 28 39 35 34 32 31 28 31 30 35 24 25 28 22 21 18 16 20 21 20 15 14 14 16 17 20 14 10 9 4
26 26 26 40 50 54 54 51 53 52 49 50 40 43 46 39 37 43 46 39 35 25 26 30 30 32 26 28 36 32 30 29 25 22 21 21 18 19 23 18 25 30 25 20 12 8 12
33 25 21 19 22 26 25 47 54 48 45 36 35 34 36 31 38 39 37 38 37 39 30 32 33 31 31 39 32 30 32 36 28 30 21 22 16 12 6 12 18 27 28 27 26 27 22
24 23 24 21 22 21 22 21 21 25 29 28 24 26 24 27 36 37 38 41 39 35 34 37 33 36 30 27 30 33 30 31 19 18 22 29 30 30 27 18 16 15 14 14 18 18 31
29 24 24 23 23 25 23 22 22 19 18 21 27 30 34 25 30 31 29 29 26 30 32 33 32 34 35 37 33 32 32 33 28 28 30 33 35 32 35 33 36 40 37 26 25 31 33
33 32 28 26 28 26 26 27 23 26 25 26 28 24 36 27 25 32 31 38 31 32 31 31 32 30 33 37 36 34 27 29 28 27 32 31 29 29 37 34 30 39 41 36 36 37 40
35 32 34 30 25 33 33 25 27 24 25 31 35 34 26 32 33 33 39 38 35 29 35 36 35 32 35 32 27 27 31 34 30 19 21 26 31 31 31 24 20 29 40 37 34 34 35
32 32 30 30 34 35 33 37 30 29 30 29 33 33 39 40 37 41 38 43 37 31 31 30 22 23 26 26 28 31 33 34 37 38 39 33 23 21 15 16 11 29 30 22 20 19 20
33 31 32 31 30 32 32 30 34 35 31 36 33 36 40 45 46 38 26 26 29 35 35 32 30 27 25 23 22 21 24 31 35 34 35 34 32 28 22 22 28 30 23 22 21 23 18
33 30 32 33 31 29 30 31 32 32 34 35 35 38 32 36 50 44 46 30 31 29 32 36 30 25 31 26 22 21 16 19 9 9 16 22 34 36 27 14 8 18 9 6 12 25 27
30 29 28 26 26 26 26 26 27 29 33 34 37 44 46 43 32 32 43 52 39 33 32 34 30 29 31 33 36 28 24 20 15 20 24 27 24 32 39 29 18 18 19 16 10 24 17
29 29 29 29 30 31 31 31 32 33 34 35 33 37 44 50 54 40 33 43 44 51 44 32 30 37 31 33 31 27 24 29 27 36 32 27 17 24 21 22 18 26 18 20 16 18 19
29 30 30 30 30 30 29 31 34 35 36 37 40 33 39 41 45 39 43 37 36 44 38 42 34 31 21 22 22 11 15 18 30 27 33 31 35 25 20 22 17 18 14 23 26 27 23
Wind_Direction
232 229 225 227 231 238 252 261 266 269 272 278 287 297 302 307 311 317 324 329 332 337 346 348 350 347 342 344 335 335 342 329 329 331 327 322 307 317 339 346 337 336 330 317 311 305 300
234 231 228 225 229 238 246 256 261 271 276 278 280 283 291 298 303 308 313 316 323 329 332 337 336 333 339 334 336 332 323 317 319 316 308 309 318 333 340 335 331 322 321 314 312 310 311
239 237 234 233 233 234 234 240 251 259 265 271 278 286 290 296 302 303 313 316 321 325 326 328 325 324 327 323 300 316 317 311 308 295 266 245 270 336 328 330 327 322 321 317 320 316 307
234 237 240 239 239 241 239 239 241 247 252 262 270 279 287 293 299 305 313 315 317 316 316 317 320 323 313 314 307 316 318 312 298 182 144 150 327 333 339 325 327 322 326 328 318 312 308
231 236 239 241 242 242 243 243 243 246 251 257 266 273 279 287 297 303 309 311 309 307 307 309 320 321 317 316 319 320 314 298 153 133 115 18 351 336 333 328 329 321 311 314 322 318 314
236 235 241 245 246 247 247 249 252 255 258 263 266 268 275 283 290 298 305 306 310 310 308 310 316 314 303 310 313 308 224 160 156 133 342 335 332 330 324 326 315 308 314 315 313 308 309
237 237 236 240 245 249 252 255 258 261 267 272 275 281 283 283 288 295 300 305 312 310 310 310 306 304 304 306 286 237 195 180 213 293 312 315 322 325 326 323 316 310 306 304 314 309 312
240 239 240 239 238 244 249 255 260 264 266 268 274 282 287 291 295 293 296 306 312 307 308 305 302 305 302 280 220 217 213 227 276 307 310 316 323 320 320 319 317 310 309 312 316 314 313
242 242 240 242 245 244 248 254 260 265 269 273 275 279 283 290 294 297 302 313 316 310 305 296 289 291 272 237 224 226 245 267 290 302 308 318 307 303 316 316 312 311 311 311 310 313 312
245 246 246 245 245 246 250 250 255 262 268 271 273 277 281 287 286 290 298 306 312 315 313 287 259 220 225 218 233 245 264 285 300 307 316 324 310 309 314 312 313 316 313 313 316 319 314
246 246 245 248 248 250 251 252 254 254 261 267 274 273 279 287 287 292 298 303 305 318 340 290 253 251 223 214 243 256 265 286 302 303 309 304 304 307 306 304 309 306 306 308 311 305 306
246 246 247 248 249 248 251 252 250 255 254 257 264 266 271 276 290 286 290 295 299 300 260 261 261 256 247 247 258 271 290 296 303 304 298 301 301 305 300 294 295 293 307 317 305 301 295
251 251 247 249 249 249 251 255 254 252 251 257 255 260 266 271 279 278 280 284 280 223 277 267 255 251 253 260 273 286 292 298 303 302 297 295 300 295 282 281 279 290 327 325 333 347 241
253 254 253 255 251 251 251 253 255 254 257 254 254 253 259 266 273 271 267 264 229 236 233 269 274 252 258 272 288 288 284 288 286 286 297 300 298 278 277 260 266 280 302 207 240 264 275
248 247 247 247 248 253 249 246 245 240 250 251 260 262 254 254 261 250 246 244 237 240 253 251 253 278 286 283 278 287 290 286 280 276 249 285 261 234 268 266 265 283 263 254 261 277 297
231 237 236 243 241 245 246 240 241 234 248 241 252 234 239 239 238 239 247 250 247 250 244 239 256 259 273 279 276 285 292 268 272 275 249 271 273 268 256 249 258 264 257 227 213 265 267
233 231 230 225 229 229 233 232 236 236 224 222 225 229 227 220 220 222 232 239 245 245 245 251 258 245 270 255 262 280 267 265 276 258 257 271 260 268 246 240 267 274 251 235 230 232 204
261 234 239 238 235 229 231 230 225 221 225 213 222 227 233 230 229 225 227 227 237 238 240 252 257 255 239 257 268 267 265 258 272 265 267 259 266 261 264 264 271 274 258 245 227 229 226
269 247 240 240 240 236 241 240 238 238 236 237 235 234 236 230 221 229 241 248 251 257 247 256 253 253 267 267 259 266 267 260 261 264 257 257 248 264 251 241 256 251 247 243 247 251 249
268 254 236 246 254 254 251 249 240 243 225 216 244 232 229 240 242 242 242 249 252 252 260 254 263 264 264 245 258 268 263 278 258 260 256 260 246 248 252 266 273 253 240 242 244 236 253
261 262 246 238 252 261 260 259 259 256 255 230 219 233 243 242 244 252 243 245 258 258 256 260 246 245 261 258 265 261 269 261 276 277 264 246 247 255 258 269 275 271 263 253 235 254 249
260 257 262 254 239 237 248 262 254 254 255 250 234 251 249 255 252 250 248 255 251 251 250 250 254 259 266 258 262 270 266 271 274 276 258 261 272 272 274 275 267 268 266 268 263 262 262
252 257 258 258 252 248 240 247 258 250 241 252 253 248 255 255 256 252 255 264 263 264 260 254 261 262 264 265 270 261 261 263 264 262 263 264 264 276 275 282 280 273 271 269 269 266 264
249 251 252 251 256 260 259 249 246 253 248 245 246 253 241 252 255 263 266 261 257 264 263 270 262 260 267 266 264 267 259 264 265 266 263 256 256 252 263 277 263 275 273 268 267 266 259
249 248 250 252 255 256 257 254 250 246 250 240 238 238 243 244 249 264 250 258 263 257 255 251 257 264 261 259 258 262 259 261 258 262 262 260 254 254 254 256 263 262 260 278 276 276 272
245 246 253 254 253 255 257 255 252 247 248 248 245 240 247 260 251 248 251 266 253 264 258 269 265 251 248 246 246 232 232 244 233 232 242 248 246 240 243 239 251 275 258 251 268 286 298
249 247 250 249 252 255 259 260 258 255 244 244 244 238 251 255 266 253 252 257 264 252 261 265 267 242 255 249 239 230 228 239 232 237 253 262 248 233 239 245 250 249 289 264 275 295 309
248 249 249 249 251 252 253 252 250 255 260 258 246 243 242 247 253 254 263 254 251 253 257 259 257 254 247 241 248 249 227 230 245 261 253 252 240 235 238 253 266 272 265 255 288 303 300
247 246 246 246 250 254 256 258 254 250 251 258 258 252 248 245 254 267 257 260 265 255 252 254 256 259 245 241 224 225 280 263 252 244 262 236 245 248 234 254 257 269 269 285 280 291 288
Height
3166 3166 3167 3168 3169 3170 3171 3171 3171 3171 3171 3170 3170 3170 3169 3168 3167 3166 3164 3162 3160 3157 3155 3153 3151 3148 3147 3145 3144 3142 3140 3139 3138 3137 3137 3135 3135 3134 3134 3133 3133 3132 3132 3131 3130 3128 3126
3164 3164 3165 3165 3165 3166 3167 3168 3169 3169 3170 3169 3168 3167 3167 3166 3165 3164 3162 3161 3159 3156 3154 3151 3149 3147 3144 3144 3142 3140 3138 3136 3134 3134 3133 3134 3134 3134 3133 3132 3132 3131 3130 3129 3127 3126 3124
3161 3162 3162 3163 3163 3163 3163 3164 3165 3166 3167 3167 3166 3166 3165 3164 3163 3162 3160 3159 3157 3154 3151 3150 3148 3145 3142 3142 3139 3138 3136 3135 3132 3131 3131 3132 3132 3133 3133 3132 3131 3129 3128 3127 3126 3125 3122
3157 3159 3161 3161 3161 3162 3161 3161 3161 3162 3162 3163 3163 3163 3163 3162 3161 3159 3157 3156 3154 3152 3149 3147 3145 3142 3139 3137 3136 3135 3133 3132 3131 3130 3130 3131 3132 3132 3132 3131 3130 3128 3127 3126 3124 3122 3120
3152 3154 3156 3157 3159 3160 3160 3159 3159 3159 3159 3159 3159 3159 3159 3158 3158 3156 3155 3153 3152 3150 3147 3145 3142 3140 3139 3137 3135 3132 3132 3132 3131 3130 3131 3131 3131 3131 3131 3130 3129 3127 3124 3123 3121 3120 3119
3147 3148 3151 3154 3155 3156 3156 3157 3156 3157 3156 3157 3156 3156 3156 3155 3154 3153 3152 3151 3149 3148 3145 3142 3139 3141 3137 3135 3132 3131 3131 3130 3131 3130 3131 3130 3130 3129 3127 3127 3126 3123 3121 3120 3117 3115 3115
3142 3144 3145 3148 3151 3152 3153 3154 3154 3154 3154 3154 3154 3154 3154 3152 3151 3150 3150 3148 3149 3147 3143 3140 3138 3135 3133 3132 3130 3130 3131 3131 3131 3130 3129 3129 3128 3126 3126 3124 3123 3120 3118 3114 3113 3110 3107
3137 3138 3140 3142 3143 3146 3148 3149 3150 3151 3151 3150 3151 3151 3150 3151 3150 3147 3146 3144 3143 3143 3138 3136 3134 3131 3130 3129 3129 3129 3131 3131 3131 3130 3127 3127 3125 3124 3123 3122 3121 3119 3116 3114 3112 3109 3104
3131 3133 3134 3137 3139 3140 3141 3143 3145 3146 3147 3147 3147 3147 3147 3148 3148 3147 3145 3144 3142 3139 3136 3131 3129 3128 3129 3129 3128 3128 3129 3128 3129 3128 3127 3125 3125 3123 3121 3120 3118 3117 3114 3112 3110 3106 3104
3122 3127 3129 3131 3133 3134 3136 3136 3138 3140 3142 3142 3143 3143 3143 3144 3146 3143 3144 3143 3140 3138 3133 3130 3126 3125 3126 3127 3128 3127 3127 3129 3127 3126 3125 3123 3122 3122 3121 3119 3117 3115 3112 3110 3108 3106 3102
3115 3118 3121 3124 3126 3128 3129 3130 3131 3132 3134 3136 3138 3138 3138 3139 3140 3141 3142 3139 3139 3138 3135 3129 3127 3126 3125 3127 3126 3126 3125 3124 3123 3122 3124 3123 3120 3118 3116 3116 3114 3113 3110 3108 3105 3103 3100
3106 3109 3112 3114 3117 3119 3122 3124 3125 3126 3127 3129 3131 3132 3133 3134 3135 3136 3136 3137 3138 3140 3130 3125 3124 3124 3126 3126 3126 3125 3124 3123 3121 3118 3118 3118 3117 3116 3115 3112 3110 3109 3108 3106 3102 3100 3097
3096 3098 3101 3104 3106 3110 3112 3115 3118 3120 3121 3122 3123 3124 3125 3126 3129 3131 3131 3133 3137 3133 3130 3125 3123 3122 3122 3123 3123 3123 3122 3121 3120 3117 3113 3112 3110 3109 3109 3109 3108 3106 3107 3107 3104 3103 3099
3087 3089 3091 3093 3095 3100 3103 3106 3108 3112 3114 3115 3116 3116 3116 3118 3121 3123 3126 3129 3128 3125 3124 3123 3123 3122 3122 3122 3120 3117 3115 3115 3116 3115 3112 3110 3106 3108 3107 3105 3105 3104 3104 3106 3112 3107 3096
3075 3077 3080 3082 3086 3089 3091 3095 3099 3100 3104 3105 3108 3108 3107 3107 3110 3113 3116 3114 3113 3118 3120 3120 3117 3117 3118 3118 3118 3114 3110 3108 3107 3108 3107 3104 3102 3102 3104 3104 3105 3102 3104 3104 3103 3099 3096
3061 3065 3067 3071 3073 3077 3081 3084 3087 3090 3093 3095 3097 3097 3099 3101 3103 3104 3104 3098 3099 3106 3111 3113 3113 3113 3111 3114 3113 3112 3108 3106 3105 3106 3103 3099 3097 3093 3096 3098 3100 3099 3098 3098 3100 3101 3095
3049 3051 3055 3056 3060 3063 3066 3069 3075 3077 3079 3080 3084 3086 3088 3092 3096 3096 3087 3087 3089 3094 3100 3104 3104 3104 3105 3105 3106 3106 3104 3103 3103 3103 3102 3100 3097 3091 3090 3092 3096 3096 3094 3094 3094 3093 3090
3040 3040 3043 3044 3046 3048 3053 3057 3060 3063 3067 3066 3070 3071 3075 3082 3085 3081 3077 3078 3080 3083 3087 3092 3092 3094 3096 3100 3096 3096 3095 3097 3096 3097 3096 3097 3093 3088 3086 3087 3088 3087 3088 3090 3090 3088 3082
3031 3034 3036 3037 3038 3039 3040 3045 3048 3052 3054 3058 3057 3059 3060 3068 3068 3069 3071 3073 3075 3076 3080 3080 3084 3085 3087 3089 3091 3086 3085 3085 3086 3089 3087 3088 3083 3082 3075 3073 3071 3073 3076 3078 3080 3084 3081
3021 3025 3029 3031 3032 3034 3035 3035 3037 3041 3045 3048 3049 3050 3052 3054 3056 3060 3063 3065 3067 3069 3071 3074 3075 3076 3078 3077 3080 3077 3077 3079 3078 3079 3081 3082 3077 3076 3076 3075 3072 3066 3063 3066 3071 3072 3070
3016 3017 3020 3022 3024 3027 3029 3030 3032 3034 3038 3041 3040 3037 3040 3045 3047 3052 3054 3055 3060 3064 3065 3066 3065 3067 3070 3073 3072 3070 3071 3070 3069 3072 3073 3071 3067 3066 3063 3069 3070 3063 3058 3056 3057 3058 3059
3008 3010 3012 3014 3017 3020 3023 3023 3025 3027 3033 3035 3035 3034 3034 3034 3039 3046 3046 3046 3050 3055 3059 3059 3058 3063 3064 3062 3066 3065 3065 3064 3063 3063 3065 3063 3059 3060 3054 3056 3060 3053 3052 3050 3047 3048 3048
2999 3001 3003 3007 3008 3013 3015 3018 3018 3022 3024 3023 3028 3030 3028 3027 3029 3034 3035 3039 3040 3046 3046 3053 3054 3053 3053 3055 3057 3057 3056 3055 3058 3058 3059 3058 3055 3057 3047 3051 3050 3042 3040 3041 3037 3038 3037
2990 2993 2995 2998 3000 3004 3006 3009 3011 3013 3015 3017 3020 3024 3023 3020 3020 3023 3025 3028 3031 3035 3039 3043 3044 3045 3048 3047 3046 3046 3047 3047 3047 3052 3050 3051 3051 3049 3044 3044 3039 3031 3030 3030 3028 3032 3030
2981 2984 2987 2990 2992 2995 2997 2999 3001 3005 3006 3007 3010 3014 3014 3011 3015 3016 3017 3020 3024 3027 3028 3032 3036 3037 3039 3040 3039 3039 3038 3039 3036 3039 3042 3041 3043 3041 3038 3037 3031 3026 3024 3025 3024 3026 3026
2972 2976 2978 2981 2984 2986 2989 2991 2993 2995 2997 2998 3001 3005 3003 3000 2998 3010 3012 3013 3016 3016 3020 3021 3026 3027 3029 3030 3030 3027 3027 3028 3029 3029 3029 3031 3032 3037 3033 3026 3024 3019 3017 3017 3019 3016 3019
2964 2967 2970 2971 2975 2978 2981 2984 2986 2987 2987 2989 2991 2995 2991 2988 2991 2999 3002 3005 3010 3010 3012 3015 3017 3019 3021 3018 3020 3017 3018 3021 3021 3021 3023 3024 3025 3023 3022 3018 3010 3012 3015 3013 3015 3013 3009
2955 2958 2961 2964 2967 2970 2973 2975 2978 2980 2981 2979 2981 2985 2984 2983 2983 2988 2994 2995 2998 3001 3004 3008 3010 3007 3012 3009 3012 3012 3005 3008 3012 3010 3012 3014 3016 3014 3016 3014 3009 3007 3009 3010 3009 3006 3006
2946 2949 2953 2955 2958 2962 2963 2966 2969 2970 2973 2972 2971 2977 2977 2975 2976 2977 2982 2986 2989 2994 2997 2996 2998 3000 3002 3001 3001 3001 3000 2998 2999 3000 3001 3005 3006 3005 3009 3002 3002 3001 3003 3003 3002 3001 3000